Notices

What's New in latest Release from April 7th, 2021:

- Updated Glossary, including Speed of Maximum Gust, and Total Hourly Precipitation

- Updated national and regional climate services offices contacts and prices information

- Addition of station inventory lists for 1981-2010, 1971-2000, and 1961-1990 Normals.

If you haven't already, please take our survey and provide feedback about our website: https://eccc.sondage-survey.ca/f/LanguageSelection.aspx?s=442ca660-fcf1-47c0-95a9-59707d6fd709

Hourly Data Report for July 12, 2018

OTTAWA INTL A
ONTARIO
Current Station Operator: NAVCAN

45°19'00.000" N
75°40'00.000" W
114.90 m
6106001
71628
YOW

Download Data

Hourly Data (July 2018)
Hourly Data Report for July 12, 2018
TIME
LST
Temp Definition
°C
Dew Point Definition
°C
Rel Hum Definition
%
Precip. Amount Definition
mm

Wind Dir Definition
10's deg

Wind Spd Definition
km/h
Visibility Definition
km
Stn Press Definition
kPa
Hmdx Definition


Wind Chill Definition


Weather Definition


00:00 16.6 10.6 68   20 8 24.1 100.68     LegendNANA
01:00 16.9 10.9 67   22 8 24.1 100.70     Mostly Cloudy
02:00 15.4 10.2 71   31 9 24.1 100.73     LegendNANA
03:00 16.8 10.1 64   33 7 24.1 100.74     LegendNANA
04:00 16.6 10.5 67   1 12 24.1 100.73     Mainly Clear
05:00 16.5 10.8 69   1 13 24.1 100.79     LegendNANA
06:00 17.8 10.7 63   36 14 24.1 100.84     LegendNANA
07:00 19.2 10.4 56   36 13 24.1 100.90     Clear
08:00 20.7 10.6 52   3 13 24.1 100.91     LegendNANA
09:00 23.0 10.3 44   1 13 24.1 100.96     LegendNANA
10:00 23.9 8.9 38   31 13 24.1 100.97 25   Clear
11:00 25.1 7.3 32   32 14 24.1 100.97 25   LegendNANA
12:00 26.8 5.0 24   36 17 24.1 100.95 26   LegendNANA
13:00 28.2 5.2 23   1 15 24.1 100.91 28   Mainly Clear
14:00 28.2 7.0 26   9 14 24.1 100.84 28   LegendNANA
15:00 28.3 7.6 27   15 6 24.1 100.80 29   LegendNANA
16:00 28.6 7.6 26   3 8 24.1 100.77 29   Mainly Clear
17:00 28.4 7.8 27   11 8 24.1 100.78 29   LegendNANA
18:00 27.8 8.2 29   13 5 24.1 100.83 28   LegendNANA
19:00 24.8 10.1 39   16 8 24.1 100.85 26   Mainly Clear
20:00 22.3 10.3 46   16 8 24.1 100.85     LegendNANA
21:00 18.4 9.8 57   17 7 24.1 100.90     LegendNANA
22:00 20.3 10.0 51   19 6 24.1 100.90     Clear
23:00 18.7 10.4 58   17 7 24.1 100.88     LegendNANA

Notes on Data Quality.

Legend

  • E = Estimated
  • M = Missing
  • NA = Not Available*
  • [empty] = Indicates an unobserved value
Date modified: